Погода в Жипхегене

Россия / Забайкальский край     51°27′21″N   110°10′11″E
темп.,
°C
ветер,
м/с
пор.,
м/с
влажн.,
%
обл.,
%
осадки,
мм/ч
давл.,
гПа
погр.,
м
17 мая, вт
вт1700:00+7сз11495 0.0 100811
03:00+5зюз115859 0.0 101010
06:00+4зюз116499 0.0 101012
09:00+12зюз2540100 0.0 1009395
12:00+19зсз672698 0.0 10073305
15:00+17зюз764087 0.0 10072097
18:00+13зсз46575 0.0 10091171
21:00+12з37626 0.0 1009266
18 мая, ср
ср1800:00+7з238814 0.0 101144
03:00+6зюз229450 0.0 101239
06:00+6з25864 0.0 1012136
09:00+15сз711415 0.0 10111611
12:00+18сз7102971 0.0 10102423
15:00+21сз6924100 0.0 10093002
18:00+20сз692784 0.0 10092866
21:00+16сз510410 0.0 1012741
19 мая, чт
чт1900:00+9зсз11655 0.0 101411
03:00+7зюз11745 0.0 101510
06:00+6юз11815 0.0 101611
09:00+15зюз24455 0.0 1014415
12:00+22зсз462644 0.0 10112580
15:00+25зсз571819 0.0 10093560
18:00+25зсз581859 0.0 10083564
21:00+19ссз4103729 0.0 1010447
20 мая, пт
пт2000:00+12зсз116020 0.0 101110
03:00+11зюз116272 0.0 101110
06:00+9юз11705 0.0 101110
09:00+18з24425 0.0 1010613
12:00+23сз592577 0.0 10082228
15:00+26сз5102280 0.0 10063491
18:00+25ссз710215 0.0 10062897
21:00+19ссз4113017 0.0 1008580
21 мая, сб
сб2100:00+13сз114751 0.0 101010
03:00+11юз0053100 0.0 101110
06:00+9ю11596 0.0 101110
09:00+18ююз113688 0.0 1011325
12:00+25з242748 0.0 10082243
15:00+24сз4629100 0.0 10062805
18:00+15ююз227897 1.8 100847
21:00+16зсз126819 1.8 100859